Regional Weather Roundup
Issued by NWS

Home | Current Version | Previous Version | Graphics & Text | Print | Product List | Glossary Off
Versions: 1 2 3 4 5 6 7 8 9 10 11 12 13 14 15 16 17 18 19 20 21 22 23 24 25 26 27 28 29 30 31 32 33 34 35 36 37 38 39 40 41 42 43 44 45 46 47 48 49 50

000
ASUS43 KTOP 230008
RWRKS

WEATHER ROUNDUP FOR KANSAS
NATIONAL WEATHER SERVICE GOODLAND KS
700 PM CDT FRI MAY 22 2015

NOTE:  "FAIR" INDICATES FEW OR NO CLOUDS BELOW 12,000 FEET WITH NO
SIGNIFICANT WEATHER AND/OR OBSTRUCTIONS TO VISIBILITY.

KSZ001>006-013>018-027>032-041>047-230100-
NORTHWEST KANSAS

CITY           SKY/WX    TMP DP  RH WIND       PRES   REMARKS
GOODLAND       CLOUDY    55  52  89 SE16      30.00R
6HR MIN TEMP:  49; 6HR MAX TEMP:  56; 6HR PCP:  0.03;

HAYS           CLOUDY    55  50  82 SE12      30.09F
HILL CITY      CLOUDY    53  52  96 E9        30.09F FOG
6HR MIN TEMP:  53; 6HR MAX TEMP:  55; 6HR PCP: TRACE;

RUSSELL        LGT RAIN  56  55  97 SE13      30.09F FOG
6HR MIN TEMP:  55; 6HR MAX TEMP:  57; 6HR PCP:  0.01;

$$

KSZ061>065-074>080-084>089-230100-
SOUTHWEST KANSAS

CITY           SKY/WX    TMP DP  RH WIND       PRES   REMARKS
DODGE CITY     CLOUDY    57  53  86 S16       30.07F
6HR MIN TEMP:  54; 6HR MAX TEMP:  59;

ELKHART          N/A     67  51  56 S17         N/A
GARDEN CITY    CLOUDY    56  54  93 SE17      30.02F
6HR MIN TEMP:  51; 6HR MAX TEMP:  57;

GREAT BEND     CLOUDY    55  52  88 S15       30.10S
LIBERAL        PTSUNNY   63  55  77 SE17      30.03F
PRATT          DRIZZLE   55  54  94 SE10      30.11F
$$

KSZ066>073-081>083-090>101-230100-
SOUTHEAST KANSAS

CITY           SKY/WX    TMP DP  RH WIND       PRES   REMARKS
CHANUTE        CLOUDY    62  49  62 E6        30.17F
6HR MIN TEMP:  62; 6HR MAX TEMP:  64; 6HR PCP: TRACE;

COFFEYVILLE    CLOUDY    64  53  67 E5        30.16F
6HR MIN TEMP:  61; 6HR MAX TEMP:  64; 6HR PCP: TRACE;

HUTCHINSON     CLOUDY    60  54  80 SE9       30.12F
6HR MIN TEMP:  56; 6HR MAX TEMP:  61; 6HR PCP: TRACE;

MEDICINE LODGE   N/A     57  56  96 SE9       30.09F
NEWTON         CLOUDY    59  48  67 SE15      30.15F
PARSONS        CLOUDY    63  52  67 CALM      30.18F
6HR MIN TEMP:  62; 6HR MAX TEMP:  65; 6HR PCP: TRACE;

WICHITA INTL   CLOUDY    61  52  72 SE14      30.12F
6HR MIN TEMP:  56; 6HR MAX TEMP:  62; 6HR PCP:  0.02;

WICHITA JABRA  CLOUDY    60  53  77 SE13G20   30.12F
6HR MIN TEMP:  56; 6HR MAX TEMP:  61; 6HR PCP: TRACE;

WICHITA MCCONL CLOUDY    61  53  74 E14       30.12F
WINFIELD       CLOUDY    60  52  74 SE8       30.15F
6HR MIN TEMP:  59; 6HR MAX TEMP:  63;

$$

KSZ007>012-019>026-033>040-048>060-102>105-230100-
NORTHEAST KANSAS

CITY           SKY/WX    TMP DP  RH WIND       PRES   REMARKS
CONCORDIA      CLOUDY    57  52  83 SE14      30.14F
6HR MIN TEMP:  57; 6HR MAX TEMP:  59; 6HR PCP: TRACE;

EMPORIA        CLOUDY    61  47  59 SE14      30.17F
6HR MIN TEMP:  60; 6HR MAX TEMP:  63;

LAWRENCE       CLOUDY    63  49  60 E8        30.19F
6HR MIN TEMP:  63; 6HR MAX TEMP:  65;

MANHATTAN      CLOUDY    63  47  55 SE13      30.15F
6HR MIN TEMP:  62; 6HR MAX TEMP:  66;

MARYSVILLE     CLOUDY    63  46  55 SE12      30.16F
OLATHE IND     CLOUDY    62  50  64 E8        30.20F
6HR MIN TEMP:  61; 6HR MAX TEMP:  63; 6HR PCP: TRACE;

OLATHE EXE     CLOUDY    62  52  69 E5        30.20F
6HR MIN TEMP:  61; 6HR MAX TEMP:  63; 6HR PCP: TRACE;

SALINA         CLOUDY    61  54  77 SE8       30.13F
6HR MIN TEMP:  58; 6HR MAX TEMP:  61; 6HR PCP:  0.01;

TOPEKA BILLARD CLOUDY    62  45  53 SE12      30.19F
6HR MIN TEMP:  62; 6HR MAX TEMP:  65;

TOPEKA FORBES  CLOUDY    63  47  55 SE9       30.18F
6HR MIN TEMP:  62; 6HR MAX TEMP:  65;

$$



USA.gov is the U.S. government's official web portal to all federal, state and local government web resources and services.